Погода в железнодорожной станции Теребутинце

Россия / Новгородская область     59°01′17″N   33°39′02″E
темп.,
°C
ветер,
м/с
пор.,
м/с
влажн.,
%
обл.,
%
осадки,
мм/ч
давл.,
гПа
погр.,
м
28 ноября, вс
вс2800:00−2св41196100 1.9 996488
03:00−3св41096100 2.8 996418
06:00−3св399698 0.8 995353
09:00−4св3796100 1.6 996296
12:00−3ссв1396100 1.2 997219
15:00−2зюз1697100 2.0 999408
18:00−4з389589 0.3 1002508
21:00−5з259599 0.4 1004441
29 ноября, пн
пн2900:00−5зсз149792 0.1 1007235
03:00−6св1197100 0.1 100848
06:00−8всв2597100 0.0 1008131
09:00−8в3895100 0.1 1007224
12:00−7всв41194100 0.0 1006265
15:00−6всв41394100 0.1 1002345
18:00−5всв51394100 0.4 999397
21:00−4в51294100 0.9 996363
30 ноября, вт
вт3000:00−3в41296100 0.4 992376
03:00−1в41198100 0.8 988379
06:000всв41198100 0.0 983483
09:00−1всв41198100 0.1 980438
12:00−1св3996100 0.2 978383
15:00−2с2695100 0.3 976337
18:00−4ссз2696100 0.1 976277
21:00−5сз389698 0.4 977358
1 декабря, ср
ср100:00−5сз399595 0.3 978459
03:00−6зсз399591 0.6 980486
06:00−6з41194100 0.3 982509
09:00−7з41094100 0.6 984501
12:00−6з41092100 0.3 986698
15:00−6з51092100 0.6 988734
18:00−8з41093100 0.2 990797
21:00−9з41094100 0.4 992564
2 декабря, чт
чт200:00−9з3995100 0.1 993421
03:00−10юз2698100 0.2 993206
06:00−12ююв239999 0.1 99366
09:00−10юв2795100 0.1 992195
12:00−8вюв3989100 0.0 990305
15:00−7в4995100 0.7 988404
18:00−6в389597 1.3 988358
21:00−7св259699 1.8 989208